#timestamp,LO_Frequency,Hit,StdDev 
1611460815.9,286047033.8,N
1611460835.7,286047038.2,N
1611460855.5,286047041.5,N
1611460875.4,286047049.0,Y
1611460895.2,286047017.9,P
1611460915.1,286047017.8,P
1611460916.0,286047017.8,P
1611460935.8,286047027.8,Y
1611460955.6,286047003.1,P
1611460975.5,286047003.6,N
1611460995.3,286047008.8,N
1611461015.2,286047004.2,N
1611461035.9,286047009.1,N
1611461055.7,286047006.5,N
1611461075.6,286047010.3,N
1611461095.4,286047012.3,N
1611461115.2,286047012.9,N
1611461135.1,286047018.3,Y
1611461136.0,286047018.3,P
1611461155.8,286047009.0,N
1611461175.7,286047001.4,N
1611461195.5,286047002.9,N
1611461215.3,286047004.5,N
1611461235.2,286047009.2,N
1611461255.0,286047006.5,N
1611461255.9,286047006.5,N
1611461275.7,286047009.6,N
1611461295.6,286047010.3,N
1611461315.4,286047004.7,N
1611461335.3,286047002.0,N
1611461355.1,286047005.0,N
1611461356.0,286047005.0,N
1611461375.8,286047004.5,N
1611461395.7,286047012.4,Y
1611461415.5,286047007.3,P
1611461435.4,286047008.1,P
1611461455.2,286047006.1,P
1611461475.0,286047006.2,Y
1611461475.9,286047006.2,P
1611461495.8,286047000.1,N
1611461515.6,286047004.4,N
1611461535.4,286047007.0,N
1611461555.3,286047007.2,N
1611461575.1,286047003.7,N
1611461595.9,286047003.6,N
1611461615.7,286047002.3,N
1611461635.5,286047003.8,N
1611461655.4,286047002.1,N
1611461675.2,286047005.2,N
1611461695.0,286047007.9,Y
1611461696.0,286047007.9,P
1611461715.8,286047004.2,N
1611461735.6,286047002.6,N
1611461755.5,286047003.9,N
1611461775.3,286047000.5,N
1611461795.1,286046999.8,N
1611461815.9,286047002.4,N
1611461835.7,286047003.9,N
1611461855.6,286047004.3,N
1611461875.4,286047003.2,N
1611461895.2,286047007.1,Y
1611461915.1,286047001.8,P
1611461916.0,286047001.8,N
1611461935.8,286046997.0,P
1611461955.6,286046996.6,N
1611461975.5,286046999.0,N
1611461995.3,286047001.7,N
1611462015.2,286047005.1,N
1611462035.9,286047007.9,N
1611462055.7,286047010.2,N
1611462075.6,286047010.0,N
1611462095.4,286047015.1,Y
1611462115.2,286047010.6,P
1611462135.1,286047010.4,N
1611462136.0,286047010.4,N
1611462155.8,286047011.3,Y
1611462175.7,286047003.9,P
1611462195.5,286047004.0,N
1611462215.3,286047005.6,N
1611462235.2,286047002.2,N
1611462255.0,286046998.6,N
1611462255.9,286046998.6,N
1611462275.8,286046996.1,N
1611462295.6,286046992.0,N
1611462315.4,286046993.9,N
1611462335.3,286046992.7,N
1611462355.1,286046987.9,N
1611462375.8,286046989.3,N
1611462395.7,286046991.2,N
1611462415.5,286046995.1,N
1611462435.4,286046995.5,N
1611462455.2,286046995.2,N
1611462475.0,286046998.8,N
1611462475.9,286046998.8,N
1611462495.8,286046999.8,N
1611462515.6,286047004.3,N
1611462535.4,286047002.3,N
1611462555.3,286047001.8,N
1611462575.1,286046998.5,N
1611462595.9,286046995.5,N
1611462615.7,286046998.7,N
1611462635.5,286047001.2,N
1611462655.4,286047001.7,N
1611462675.2,286047002.2,N
1611462695.0,286047000.4,N
1611462695.9,286047000.4,N
1611462715.8,286046999.7,N
1611462735.6,286047002.0,N
1611462755.5,286046999.9,N
1611462775.3,286047002.3,N
1611462795.1,286047006.8,N
1611462815.9,286047007.6,N
1611462835.7,286047007.0,N
1611462855.5,286047005.9,N
1611462875.4,286047004.8,N
1611462895.2,286047004.7,N
1611462915.1,286047005.4,N
1611462916.0,286047005.4,N
1611462935.8,286047002.9,N
1611462955.6,286047002.6,N
1611462975.5,286047004.0,N
1611462995.3,286047002.4,N
1611463015.2,286047001.7,N
1611463035.9,286047002.6,N
1611463055.7,286047003.5,N
1611463075.6,286047007.4,N
1611463095.4,286047008.1,N
1611463115.3,286047010.2,Y
1611463135.1,286047007.6,P
1611463136.0,286047007.6,P
1611463155.8,286047010.6,P
1611463175.7,286047008.6,Y
1611463195.5,286046999.9,P
1611463215.3,286047002.1,N
1611463235.2,286047003.0,N
1611463255.0,286047002.6,N
1611463255.9,286047002.6,N
1611463275.8,286047005.7,N
1611463295.6,286047005.0,N
1611463315.4,286047008.1,Y
1611463335.3,286047003.0,P
1611463355.1,286047003.2,P
1611463375.9,286047001.3,P
1611463395.7,286047001.7,N
1611463415.5,286047004.7,Y
1611463435.4,286047006.9,P
1611463455.2,286047007.3,P
1611463475.1,286047005.0,N
1611463476.0,286047005.0,N
1611463495.8,286047004.6,N
1611463515.6,286047004.9,Y
1611463535.5,286046998.3,P
1611463555.3,286046991.7,N
1611463575.1,286046988.9,N
1611463595.9,286046988.6,N
1611463615.7,286046988.8,N
1611463635.6,286046991.5,N
1611463655.4,286046987.8,N
1611463675.2,286046991.9,N
1611463695.1,286046991.7,N
1611463696.0,286046991.7,N
1611463715.8,286046994.8,N
1611463735.6,286046992.5,N
1611463755.5,286046992.2,N
1611463775.3,286046989.4,N
1611463795.2,286046989.3,N
1611463815.9,286046993.0,N
1611463835.7,286046994.6,N
1611463855.6,286046995.3,N
1611463875.4,286046992.7,N
1611463895.3,286046991.8,N
1611463915.1,286046991.3,N
1611463916.0,286046991.3,N
1611463935.8,286046992.1,N
1611463955.7,286046992.8,N
1611463975.5,286046990.1,N
1611463995.4,286046982.6,Y
1611464015.2,286046987.6,P
1611464035.0,286046979.7,P
1611464035.9,286046979.7,P
1611464055.8,286046978.4,Y
1611464075.6,286046994.4,P
1611464095.5,286046983.7,P
1611464115.3,286046973.8,P
1611464135.1,286046965.5,Y
1611464155.9,286046967.7,P
1611464175.7,286046950.5,P
1611464195.5,286046933.1,P
1611464215.4,286046929.0,Y
1611464235.2,286046959.1,P
1611464255.1,286046950.9,P
1611464256.0,286046950.9,P
1611464275.8,286046951.0,Y
1611464295.6,286046999.5,P
1611464315.5,286046998.5,N
1611464335.3,286047001.4,N
1611464355.2,286047001.0,N
1611464375.0,286047000.8,N
1611464375.9,286047000.8,N
1611464395.7,286046997.1,N
